N23P KGGG-KASE

Flight info

Callsign N23P
Flight time 1h 55m
Altitude 42000
Route BYP TBE KANON HAREI DBL
Aircraft C750/M-SBDE3FGHRWXY/S

Departure

Time 2026-04-27 10:00
Airport East Texas Regional Airport (KGGG)

Arrival

Time 2026-04-27 11:56
Airport Aspen-Pitkin County Airport (Sardy Field) (KASE)
Time Latitude Longitude Altitude Speed Heading
2026-04-27 09:55 32.38243 -94.71862 363 ft 0 kts
2026-04-27 09:57 32.38245 -94.71862 363 ft 2 kts
2026-04-27 09:57 32.38252 -94.71830 363 ft 10 kts 68°
2026-04-27 09:57 32.38330 -94.71806 366 ft 15 kts 359°
2026-04-27 09:58 32.38455 -94.71809 363 ft 21 kts 358°
2026-04-27 09:58 32.38620 -94.71812 362 ft 27 kts 360°
2026-04-27 09:58 32.38826 -94.71818 362 ft 32 kts
2026-04-27 09:58 32.39014 -94.71951 363 ft 35 kts 307°
2026-04-27 09:59 32.39171 -94.72090 362 ft 19 kts 26°
2026-04-27 09:59 32.39305 -94.71941 365 ft 32 kts 45°
2026-04-27 09:59 32.39393 -94.71741 366 ft 26 kts 90°
2026-04-27 09:59 32.39346 -94.71665 366 ft 8 kts 184°
2026-04-27 10:00 32.39323 -94.71666 366 ft 10 kts 180°
2026-04-27 10:00 32.38855 -94.71658 360 ft 121 kts 178°
2026-04-27 10:00 32.37880 -94.71641 685 ft 149 kts 184°
2026-04-27 10:00 32.37007 -94.72199 1472 ft 148 kts 228°
2026-04-27 10:01 32.36770 -94.73364 2420 ft 153 kts 269°
2026-04-27 10:01 32.37347 -94.74518 3194 ft 179 kts 306°
2026-04-27 10:01 32.38269 -94.75411 4294 ft 159 kts 309°
2026-04-27 10:01 32.39150 -94.76131 5196 ft 153 kts 313°
2026-04-27 10:02 32.39872 -94.77104 5502 ft 169 kts 289°
2026-04-27 10:02 32.40616 -94.78372 5862 ft 206 kts 301°
2026-04-27 10:02 32.41646 -94.79667 6583 ft 216 kts 307°
2026-04-27 10:02 32.42685 -94.80892 7582 ft 214 kts 306°
2026-04-27 10:03 32.43716 -94.82183 8562 ft 216 kts 306°
2026-04-27 10:03 32.44746 -94.83485 9591 ft 217 kts 306°
2026-04-27 10:03 32.45788 -94.84797 10457 ft 220 kts 306°
2026-04-27 10:03 32.46845 -94.86128 11305 ft 222 kts 307°
2026-04-27 10:04 32.47909 -94.87467 12173 ft 224 kts 307°
2026-04-27 10:04 32.48984 -94.88821 13055 ft 226 kts 307°
2026-04-27 10:04 32.50065 -94.90184 13890 ft 228 kts 307°
2026-04-27 10:04 32.51148 -94.91552 14625 ft 232 kts 307°
2026-04-27 10:05 32.52264 -94.92960 15362 ft 236 kts 308°
2026-04-27 10:05 32.53404 -94.94400 16106 ft 242 kts 308°
2026-04-27 10:05 32.54568 -94.95869 16880 ft 246 kts 308°
2026-04-27 10:05 32.55747 -94.97359 17683 ft 250 kts 309°
2026-04-27 10:06 32.56948 -94.98877 18452 ft 254 kts 309°
2026-04-27 10:06 32.58160 -95.00409 19231 ft 255 kts 309°
2026-04-27 10:06 32.59380 -95.01951 20048 ft 256 kts 309°
2026-04-27 10:06 32.60603 -95.03500 20855 ft 258 kts 308°
2026-04-27 10:07 32.61837 -95.05064 21675 ft 261 kts 308°
2026-04-27 10:07 32.63082 -95.06641 22498 ft 262 kts 308°
2026-04-27 10:07 32.64320 -95.08210 23314 ft 265 kts 308°
2026-04-27 10:07 32.65582 -95.09811 24034 ft 267 kts 308°
2026-04-27 10:08 32.66852 -95.11421 24758 ft 267 kts 308°
2026-04-27 10:08 32.68122 -95.13033 25460 ft 268 kts 307°
2026-04-27 10:08 32.69403 -95.14659 26182 ft 270 kts 307°
2026-04-27 10:08 32.70687 -95.16290 26912 ft 271 kts 307°
2026-04-27 10:09 32.71974 -95.17926 27629 ft 272 kts 307°
2026-04-27 10:09 32.73274 -95.19580 28345 ft 274 kts 306°
2026-04-27 10:09 32.74580 -95.21241 29093 ft 276 kts 306°
2026-04-27 10:09 32.75891 -95.22910 29826 ft 278 kts 306°
2026-04-27 10:10 32.77217 -95.24597 30467 ft 279 kts 306°
2026-04-27 10:10 32.78542 -95.26284 31124 ft 281 kts 306°
2026-04-27 10:10 32.79885 -95.27997 31742 ft 283 kts 306°
2026-04-27 10:10 32.81213 -95.29690 32394 ft 284 kts 306°
2026-04-27 10:11 32.82563 -95.31411 33037 ft 285 kts 306°
2026-04-27 10:11 32.83922 -95.33145 33675 ft 287 kts 306°
2026-04-27 10:11 32.85289 -95.34892 34199 ft 289 kts 306°
2026-04-27 10:11 32.86662 -95.36645 34761 ft 289 kts 306°
2026-04-27 10:12 32.88036 -95.38399 35328 ft 290 kts 306°
2026-04-27 10:12 32.89414 -95.40163 35880 ft 291 kts 306°
2026-04-27 10:12 32.90795 -95.41929 36423 ft 292 kts 306°
2026-04-27 10:12 32.92178 -95.43699 36962 ft 293 kts 306°
2026-04-27 10:13 32.93570 -95.45483 37495 ft 294 kts 306°
2026-04-27 10:13 32.94946 -95.47245 38028 ft 295 kts 306°
2026-04-27 10:13 32.96344 -95.49038 38547 ft 296 kts 306°
2026-04-27 10:13 32.97752 -95.50844 38941 ft 298 kts 306°
2026-04-27 10:14 32.99173 -95.52669 39309 ft 302 kts 306°
2026-04-27 10:14 33.00608 -95.54510 39689 ft 305 kts 306°
2026-04-27 10:14 33.02056 -95.56370 40064 ft 307 kts 306°
2026-04-27 10:14 33.03518 -95.58248 40460 ft 310 kts 306°
2026-04-27 10:15 33.04993 -95.60145 40849 ft 314 kts 306°
2026-04-27 10:15 33.06486 -95.62066 41228 ft 316 kts 306°
2026-04-27 10:15 33.07988 -95.63999 41549 ft 319 kts 306°
2026-04-27 10:15 33.09504 -95.65952 41805 ft 325 kts 306°
2026-04-27 10:16 33.11043 -95.67943 41802 ft 337 kts 306°
2026-04-27 10:16 33.12663 -95.70033 41800 ft 349 kts 306°
2026-04-27 10:16 33.14341 -95.72193 41791 ft 360 kts 306°
2026-04-27 10:16 33.16063 -95.74415 41799 ft 370 kts 307°
2026-04-27 10:17 33.17837 -95.76708 41804 ft 381 kts 307°
2026-04-27 10:17 33.19659 -95.79063 41802 ft 391 kts 307°
2026-04-27 10:17 33.23445 -95.83960 41806 ft 410 kts 307°
2026-04-27 10:18 33.27404 -95.89090 41799 ft 428 kts 307°
2026-04-27 10:18 33.31490 -95.94390 41795 ft 443 kts 307°
2026-04-27 10:19 33.35687 -95.99838 41789 ft 446 kts 307°
2026-04-27 10:19 33.39902 -96.05328 41797 ft 447 kts 307°
2026-04-27 10:20 33.44114 -96.10816 41773 ft 448 kts 307°
2026-04-27 10:20 33.48344 -96.16339 41765 ft 449 kts 307°
2026-04-27 10:21 33.52563 -96.21860 41769 ft 448 kts 307°
2026-04-27 10:21 33.56219 -96.27837 41761 ft 442 kts 299°
2026-04-27 10:22 33.59654 -96.33967 41762 ft 443 kts 300°
2026-04-27 10:22 33.63058 -96.40077 41757 ft 443 kts 299°
2026-04-27 10:23 33.66485 -96.46231 41755 ft 443 kts 299°
2026-04-27 10:23 33.69907 -96.52385 41754 ft 442 kts 299°
2026-04-27 10:24 33.73322 -96.58541 41790 ft 442 kts 299°
2026-04-27 10:24 33.76727 -96.64687 41746 ft 442 kts 299°
2026-04-27 10:25 33.80135 -96.70851 41744 ft 442 kts 299°
2026-04-27 10:25 33.83514 -96.76971 41740 ft 442 kts 299°
2026-04-27 10:26 33.86908 -96.83130 41739 ft 442 kts 298°
2026-04-27 10:26 33.90313 -96.89318 41745 ft 443 kts 298°
2026-04-27 10:27 33.93711 -96.95502 41741 ft 443 kts 298°
2026-04-27 10:27 33.97103 -97.01689 41739 ft 442 kts 298°
2026-04-27 10:28 34.00492 -97.07880 41746 ft 442 kts 298°
2026-04-27 10:28 34.03884 -97.14087 41739 ft 443 kts 298°
2026-04-27 10:29 34.07249 -97.20254 41736 ft 443 kts 298°
2026-04-27 10:29 34.10630 -97.26465 41735 ft 443 kts 298°
2026-04-27 10:30 34.14014 -97.32688 41727 ft 443 kts 298°
2026-04-27 10:30 34.17389 -97.38906 41720 ft 443 kts 298°
2026-04-27 10:31 34.20769 -97.45145 41716 ft 443 kts 298°
2026-04-27 10:31 34.24137 -97.51373 41714 ft 443 kts 298°
2026-04-27 10:32 34.27511 -97.57622 41714 ft 443 kts 298°
2026-04-27 10:32 34.30854 -97.63825 41707 ft 443 kts 297°
2026-04-27 10:33 34.34216 -97.70074 41706 ft 443 kts 297°
2026-04-27 10:33 34.37578 -97.76332 41705 ft 443 kts 297°
2026-04-27 10:34 34.40395 -97.81587 41704 ft 443 kts 297°
2026-04-27 10:34 34.43730 -97.87815 41703 ft 444 kts 297°
2026-04-27 10:35 34.47084 -97.94092 41745 ft 444 kts 297°
2026-04-27 10:35 34.50440 -98.00383 41743 ft 444 kts 297°
2026-04-27 10:36 34.53793 -98.06679 41745 ft 444 kts 297°
2026-04-27 10:36 34.57147 -98.12988 41731 ft 444 kts 297°
2026-04-27 10:37 34.60499 -98.19304 41688 ft 444 kts 297°
2026-04-27 10:37 34.63823 -98.25579 41690 ft 444 kts 297°
2026-04-27 10:38 34.67163 -98.31895 41691 ft 445 kts 297°
2026-04-27 10:38 34.70500 -98.38217 41718 ft 445 kts 296°
2026-04-27 10:39 34.73843 -98.44563 41668 ft 445 kts 296°
2026-04-27 10:39 34.77182 -98.50912 41653 ft 445 kts 296°
2026-04-27 10:40 34.80519 -98.57266 41652 ft 445 kts 296°
2026-04-27 10:40 34.83851 -98.63625 41651 ft 445 kts 296°
2026-04-27 10:41 34.87178 -98.69986 41667 ft 445 kts 296°
2026-04-27 10:41 34.90481 -98.76309 41678 ft 445 kts 296°
2026-04-27 10:42 34.93800 -98.82678 41693 ft 447 kts 296°
2026-04-27 10:42 34.97130 -98.89077 41717 ft 446 kts 296°
2026-04-27 10:43 35.00452 -98.95476 41724 ft 446 kts 296°
2026-04-27 10:43 35.03772 -99.01877 41718 ft 446 kts 296°
2026-04-27 10:44 35.07088 -99.08288 41724 ft 446 kts 295°
2026-04-27 10:44 35.10393 -99.14684 41697 ft 444 kts 295°
2026-04-27 10:45 35.13668 -99.21040 41682 ft 445 kts 295°
2026-04-27 10:45 35.16973 -99.27463 41685 ft 447 kts 295°
2026-04-27 10:46 35.20281 -99.33897 41690 ft 447 kts 295°
2026-04-27 10:46 35.23582 -99.40340 41690 ft 447 kts 295°
2026-04-27 10:47 35.26884 -99.46789 41731 ft 447 kts 295°
2026-04-27 10:47 35.30163 -99.53204 41687 ft 442 kts 295°
2026-04-27 10:48 35.33423 -99.59606 41683 ft 444 kts 295°
2026-04-27 10:48 35.36692 -99.66023 41715 ft 444 kts 295°
2026-04-27 10:49 35.39962 -99.72462 41655 ft 444 kts 295°
2026-04-27 10:49 35.43214 -99.78875 41638 ft 444 kts 295°
2026-04-27 10:50 35.46474 -99.85316 41616 ft 443 kts 295°
2026-04-27 10:50 35.49690 -99.91677 41628 ft 438 kts 294°
2026-04-27 10:51 35.52900 -99.98051 41627 ft 440 kts 295°
2026-04-27 10:51 35.56120 -100.04442 41628 ft 439 kts 294°
2026-04-27 10:52 35.59330 -100.10835 41628 ft 440 kts 294°
2026-04-27 10:52 35.62538 -100.17230 41624 ft 439 kts 294°
2026-04-27 10:53 35.67334 -100.26813 41633 ft 437 kts 294°
2026-04-27 10:54 35.70498 -100.33155 41643 ft 438 kts 294°
2026-04-27 10:54 35.73685 -100.39549 41642 ft 438 kts 294°
2026-04-27 10:55 35.76867 -100.45949 41640 ft 438 kts 294°
2026-04-27 10:55 35.80050 -100.52362 41643 ft 441 kts 294°
2026-04-27 10:56 35.83262 -100.58842 41655 ft 443 kts 293°
2026-04-27 10:56 35.86461 -100.65313 41732 ft 444 kts 293°
2026-04-27 10:57 35.89671 -100.71818 41705 ft 444 kts 293°
2026-04-27 10:57 35.92883 -100.78336 41684 ft 444 kts 293°
2026-04-27 10:58 35.96091 -100.84859 41655 ft 444 kts 293°
2026-04-27 10:58 35.99292 -100.91383 41650 ft 444 kts 293°
2026-04-27 10:59 36.02497 -100.97934 41670 ft 448 kts 293°
2026-04-27 10:59 36.05721 -101.04520 41664 ft 448 kts 293°
2026-04-27 11:00 36.10524 -101.14373 41674 ft 448 kts 293°
2026-04-27 11:00 36.13735 -101.20972 41670 ft 448 kts 293°
2026-04-27 11:01 36.16948 -101.27588 41666 ft 448 kts 293°
2026-04-27 11:01 36.20156 -101.34207 41664 ft 449 kts 293°
2026-04-27 11:02 36.23372 -101.40859 41665 ft 451 kts 293°
2026-04-27 11:02 36.26593 -101.47529 41659 ft 451 kts 293°
2026-04-27 11:03 36.29815 -101.54218 41659 ft 451 kts 293°
2026-04-27 11:03 36.33032 -101.60909 41661 ft 451 kts 293°
2026-04-27 11:04 36.36221 -101.67553 41655 ft 451 kts 293°
2026-04-27 11:04 36.39428 -101.74251 41657 ft 451 kts 292°
2026-04-27 11:05 36.42641 -101.80977 41663 ft 455 kts 293°
2026-04-27 11:05 36.45871 -101.87741 41659 ft 456 kts 293°
2026-04-27 11:06 36.49095 -101.94519 41670 ft 456 kts 293°
2026-04-27 11:06 36.52319 -102.01304 41669 ft 456 kts 293°
2026-04-27 11:07 36.55524 -102.08062 41666 ft 456 kts 292°
2026-04-27 11:07 36.58742 -102.14865 41665 ft 456 kts 292°
2026-04-27 11:08 36.61967 -102.21695 41659 ft 459 kts 293°
2026-04-27 11:08 36.65206 -102.28566 41659 ft 460 kts 293°
2026-04-27 11:09 36.68443 -102.35452 41666 ft 460 kts 293°
2026-04-27 11:09 36.71676 -102.42339 41673 ft 461 kts 292°
2026-04-27 11:10 36.74910 -102.49246 41674 ft 461 kts 292°
2026-04-27 11:10 36.78117 -102.56108 41679 ft 461 kts 292°
2026-04-27 11:11 36.81342 -102.63024 41673 ft 464 kts 293°
2026-04-27 11:11 36.84607 -102.70039 41682 ft 465 kts 293°
2026-04-27 11:12 36.87836 -102.76992 41686 ft 465 kts 293°
2026-04-27 11:12 36.91081 -102.83990 41667 ft 464 kts 292°
2026-04-27 11:13 36.94313 -102.90983 41665 ft 464 kts 292°
2026-04-27 11:13 36.97541 -102.97977 41658 ft 464 kts 292°
2026-04-27 11:14 37.00763 -103.04976 41663 ft 467 kts 293°
2026-04-27 11:14 37.03987 -103.11989 41652 ft 467 kts 293°
2026-04-27 11:15 37.07220 -103.19041 41653 ft 466 kts 292°
2026-04-27 11:15 37.10442 -103.26083 41650 ft 466 kts 292°
2026-04-27 11:16 37.13668 -103.33146 41645 ft 466 kts 292°
2026-04-27 11:16 37.16878 -103.40195 41648 ft 466 kts 292°
2026-04-27 11:17 37.20092 -103.47267 41654 ft 469 kts 293°
2026-04-27 11:17 37.23311 -103.54361 41662 ft 471 kts 293°
2026-04-27 11:18 37.26586 -103.61484 41658 ft 473 kts 295°
2026-04-27 11:18 37.30065 -103.68518 41655 ft 473 kts 295°
2026-04-27 11:19 37.31793 -103.72043 41521 ft 474 kts 295°
2026-04-27 11:19 37.33516 -103.75561 41274 ft 471 kts 295°
2026-04-27 11:19 37.35227 -103.79040 41028 ft 467 kts 295°
2026-04-27 11:19 37.36355 -103.81339 40857 ft 465 kts 294°
2026-04-27 11:20 37.38047 -103.84800 40635 ft 463 kts 295°
2026-04-27 11:20 37.40292 -103.89400 40325 ft 465 kts 295°
2026-04-27 11:20 37.41435 -103.91737 40163 ft 463 kts 295°
2026-04-27 11:20 37.43118 -103.95176 39934 ft 459 kts 295°
2026-04-27 11:21 37.44762 -103.98548 39711 ft 456 kts 295°
2026-04-27 11:21 37.46414 -104.01943 39490 ft 453 kts 295°
2026-04-27 11:21 37.48056 -104.05319 39263 ft 451 kts 294°
2026-04-27 11:21 37.49689 -104.08675 39037 ft 448 kts 294°
2026-04-27 11:22 37.51314 -104.12021 38816 ft 446 kts 294°
2026-04-27 11:22 37.52929 -104.15353 38597 ft 445 kts 294°
2026-04-27 11:22 37.54563 -104.18738 38379 ft 459 kts 294°
2026-04-27 11:22 37.56240 -104.22209 38135 ft 465 kts 295°
2026-04-27 11:23 37.57930 -104.25683 37878 ft 464 kts 295°
2026-04-27 11:23 37.59611 -104.29154 37623 ft 463 kts 295°
2026-04-27 11:23 37.61280 -104.32623 37359 ft 461 kts 295°
2026-04-27 11:23 37.62941 -104.36073 37111 ft 459 kts 295°
2026-04-27 11:24 37.64572 -104.39454 36852 ft 456 kts 295°
2026-04-27 11:24 37.66215 -104.42866 36589 ft 453 kts 295°
2026-04-27 11:24 37.67848 -104.46268 36338 ft 451 kts 294°
2026-04-27 11:24 37.69474 -104.49661 36088 ft 456 kts 295°
2026-04-27 11:25 37.71122 -104.53106 35853 ft 459 kts 295°
2026-04-27 11:25 37.72787 -104.56569 35610 ft 462 kts 295°
2026-04-27 11:25 37.74460 -104.60069 35414 ft 468 kts 295°
2026-04-27 11:25 37.76158 -104.63627 35181 ft 473 kts 295°
2026-04-27 11:26 37.77857 -104.67177 34967 ft 471 kts 295°
2026-04-27 11:26 37.79531 -104.70677 34749 ft 469 kts 295°
2026-04-27 11:26 37.81213 -104.74214 34510 ft 472 kts 295°
2026-04-27 11:26 37.82909 -104.77792 34278 ft 476 kts 295°
2026-04-27 11:27 37.84621 -104.81383 34051 ft 475 kts 295°
2026-04-27 11:27 37.86327 -104.84964 33831 ft 474 kts 295°
2026-04-27 11:27 37.88018 -104.88532 33591 ft 472 kts 295°
2026-04-27 11:27 37.89702 -104.92093 33333 ft 471 kts 295°
2026-04-27 11:28 37.91378 -104.95630 33087 ft 466 kts 295°
2026-04-27 11:28 37.93043 -104.99148 32849 ft 466 kts 296°
2026-04-27 11:28 37.94714 -105.02694 32580 ft 469 kts 296°
2026-04-27 11:28 37.96389 -105.06246 32311 ft 467 kts 296°
2026-04-27 11:29 37.98058 -105.09781 32062 ft 466 kts 296°
2026-04-27 11:29 37.99721 -105.13309 31826 ft 466 kts 296°
2026-04-27 11:29 38.01383 -105.16847 31572 ft 465 kts 296°
2026-04-27 11:29 38.03035 -105.20367 31323 ft 464 kts 296°
2026-04-27 11:30 38.04684 -105.23887 31109 ft 476 kts 296°
2026-04-27 11:30 38.06387 -105.27523 30869 ft 482 kts 297°
2026-04-27 11:30 38.08110 -105.31197 30615 ft 487 kts 297°
2026-04-27 11:30 38.09844 -105.34897 30374 ft 487 kts 297°
2026-04-27 11:31 38.11575 -105.38605 30172 ft 490 kts 297°
2026-04-27 11:31 38.13309 -105.42328 29933 ft 489 kts 297°
2026-04-27 11:31 38.15049 -105.46057 29663 ft 489 kts 297°
2026-04-27 11:31 38.16780 -105.49772 29375 ft 487 kts 297°
2026-04-27 11:32 38.18498 -105.53468 29088 ft 485 kts 297°
2026-04-27 11:32 38.20188 -105.57110 28810 ft 484 kts 297°
2026-04-27 11:32 38.21895 -105.60789 28532 ft 482 kts 298°
2026-04-27 11:32 38.23594 -105.64452 28269 ft 480 kts 298°
2026-04-27 11:33 38.25285 -105.68106 27985 ft 477 kts 298°
2026-04-27 11:33 38.26965 -105.71742 27723 ft 476 kts 298°
2026-04-27 11:33 38.28642 -105.75372 27475 ft 474 kts 298°
2026-04-27 11:33 38.30307 -105.78980 27134 ft 475 kts 298°
2026-04-27 11:34 38.31966 -105.82578 26734 ft 470 kts 298°
2026-04-27 11:34 38.33610 -105.86150 26342 ft 464 kts 298°
2026-04-27 11:34 38.35242 -105.89705 25966 ft 467 kts 298°
2026-04-27 11:34 38.36877 -105.93264 25598 ft 460 kts 298°
2026-04-27 11:35 38.38492 -105.96776 25308 ft 461 kts 298°
2026-04-27 11:35 38.40096 -106.00280 24931 ft 452 kts 298°
2026-04-27 11:35 38.41687 -106.03769 24907 ft 458 kts 298°
2026-04-27 11:35 38.43288 -106.07296 24918 ft 460 kts 298°
2026-04-27 11:36 38.44888 -106.10835 24918 ft 461 kts 298°
2026-04-27 11:36 38.46893 -106.14059 24891 ft 468 kts 313°
2026-04-27 11:36 38.49471 -106.16614 24720 ft 475 kts 326°
2026-04-27 11:36 38.52410 -106.18564 24358 ft 479 kts 330°
2026-04-27 11:37 38.55386 -106.20482 24011 ft 480 kts 330°
2026-04-27 11:37 38.58343 -106.22446 23667 ft 478 kts 329°
2026-04-27 11:37 38.61285 -106.24415 23293 ft 477 kts 330°
2026-04-27 11:37 38.64230 -106.26353 22862 ft 474 kts 330°
2026-04-27 11:38 38.67155 -106.28266 22456 ft 470 kts 330°
2026-04-27 11:38 38.70049 -106.30182 22078 ft 467 kts 330°
2026-04-27 11:38 38.72884 -106.32073 21698 ft 465 kts 330°
2026-04-27 11:38 38.75744 -106.33971 21303 ft 462 kts 330°
2026-04-27 11:39 38.78589 -106.35850 20926 ft 457 kts 330°
2026-04-27 11:39 38.81313 -106.37652 20531 ft 421 kts 330°
2026-04-27 11:39 38.83807 -106.39308 20123 ft 388 kts 329°
2026-04-27 11:39 38.86108 -106.40844 19885 ft 359 kts 329°
2026-04-27 11:40 38.88323 -106.42324 19859 ft 360 kts 329°
2026-04-27 11:40 38.90549 -106.43815 19874 ft 361 kts 329°
2026-04-27 11:40 38.92785 -106.45311 19596 ft 362 kts 329°
2026-04-27 11:40 38.94946 -106.46913 19165 ft 356 kts 323°
2026-04-27 11:41 38.97004 -106.48681 18779 ft 354 kts 323°
2026-04-27 11:41 38.99052 -106.50430 18411 ft 352 kts 324°
2026-04-27 11:41 39.01086 -106.52155 17987 ft 350 kts 324°
2026-04-27 11:41 39.03088 -106.53845 17517 ft 346 kts 323°
2026-04-27 11:42 39.05090 -106.55548 17078 ft 344 kts 323°
2026-04-27 11:42 39.07082 -106.57237 16894 ft 339 kts 324°
2026-04-27 11:42 39.09287 -106.58385 16879 ft 342 kts 341°
2026-04-27 11:42 39.11635 -106.59135 16549 ft 348 kts 342°
2026-04-27 11:43 39.13973 -106.59885 16158 ft 346 kts 342°
2026-04-27 11:43 39.16300 -106.60660 15874 ft 342 kts 342°
2026-04-27 11:43 39.18607 -106.61427 15947 ft 347 kts 342°
2026-04-27 11:43 39.20942 -106.62214 15643 ft 341 kts 341°
2026-04-27 11:44 39.23166 -106.62934 15235 ft 317 kts 342°
2026-04-27 11:44 39.25238 -106.63607 14881 ft 295 kts 341°
2026-04-27 11:44 39.27127 -106.64239 14906 ft 269 kts 340°
2026-04-27 11:44 39.28871 -106.64842 14928 ft 262 kts 339°
2026-04-27 11:45 39.30538 -106.65725 14837 ft 255 kts 318°
2026-04-27 11:45 39.31316 -106.66871 14678 ft 252 kts 301°
2026-04-27 11:45 39.32536 -106.69411 14273 ft 246 kts 300°
2026-04-27 11:45 39.33505 -106.71217 13936 ft 243 kts 302°
2026-04-27 11:46 39.34499 -106.72901 13924 ft 228 kts 304°
2026-04-27 11:46 39.35428 -106.74516 13869 ft 221 kts 302°
2026-04-27 11:46 39.36306 -106.76060 13925 ft 211 kts 303°
2026-04-27 11:46 39.37226 -106.77640 13936 ft 223 kts 303°
2026-04-27 11:47 39.38140 -106.79245 13855 ft 224 kts 302°
2026-04-27 11:47 39.39057 -106.80878 13838 ft 225 kts 302°
2026-04-27 11:47 39.39974 -106.82494 13854 ft 226 kts 303°
2026-04-27 11:47 39.40921 -106.84156 13846 ft 226 kts 303°
2026-04-27 11:48 39.41841 -106.85772 14023 ft 226 kts 303°
2026-04-27 11:48 39.42797 -106.87436 13972 ft 231 kts 303°
2026-04-27 11:48 39.43734 -106.89095 13947 ft 229 kts 303°
2026-04-27 11:48 39.44722 -106.90689 13913 ft 226 kts 305°
2026-04-27 11:49 39.45697 -106.92298 13924 ft 228 kts 304°
2026-04-27 11:49 39.46560 -106.93992 13902 ft 222 kts 291°
2026-04-27 11:49 39.46869 -106.95935 13925 ft 222 kts 271°
2026-04-27 11:49 39.46577 -106.97897 13897 ft 223 kts 250°
2026-04-27 11:50 39.45710 -106.99565 13903 ft 228 kts 230°
2026-04-27 11:50 39.44522 -107.00920 13933 ft 228 kts 225°
2026-04-27 11:50 39.43282 -107.02243 13728 ft 234 kts 218°
2026-04-27 11:50 39.41726 -107.02917 13393 ft 241 kts 193°
2026-04-27 11:51 39.40083 -107.02702 13040 ft 235 kts 168°
2026-04-27 11:51 39.38710 -107.01664 12865 ft 221 kts 143°
2026-04-27 11:51 39.36814 -106.98991 13033 ft 189 kts 135°
2026-04-27 11:52 39.35986 -106.97742 12819 ft 176 kts 136°
2026-04-27 11:52 39.35174 -106.96576 12923 ft 180 kts 137°
2026-04-27 11:52 39.34320 -106.95351 12666 ft 188 kts 136°
2026-04-27 11:52 39.33455 -106.94100 12268 ft 184 kts 136°
2026-04-27 11:53 39.32608 -106.92947 11835 ft 172 kts 143°
2026-04-27 11:53 39.31669 -106.92036 11348 ft 166 kts 149°
2026-04-27 11:53 39.30699 -106.91280 10980 ft 160 kts 154°
2026-04-27 11:53 39.29720 -106.90649 10405 ft 155 kts 160°
2026-04-27 11:54 39.28737 -106.90077 9968 ft 155 kts 160°
2026-04-27 11:54 39.27770 -106.89550 9423 ft 145 kts 159°
2026-04-27 11:54 39.26852 -106.89082 8978 ft 140 kts 162°
2026-04-27 11:54 39.25957 -106.88644 8685 ft 135 kts 161°
2026-04-27 11:55 39.25102 -106.88233 8326 ft 131 kts 162°
2026-04-27 11:55 39.24263 -106.87829 7967 ft 127 kts 162°
2026-04-27 11:55 39.23453 -106.87432 7788 ft 121 kts 160°
2026-04-27 11:55 39.22697 -106.87068 7729 ft 105 kts 161°
2026-04-27 11:56 39.22120 -106.86789 7767 ft 64 kts 159°
2026-04-27 11:56 39.21887 -106.86648 7789 ft 20 kts 115°
2026-04-27 11:56 39.21898 -106.86574 7784 ft 0 kts 21°
2026-04-27 11:57 39.21910 -106.86573 7782 ft 5 kts 356°
2026-04-27 11:57 39.21959 -106.86596 7783 ft 11 kts 338°
2026-04-27 11:57 39.22050 -106.86638 7773 ft 17 kts 340°
2026-04-27 11:57 39.22164 -106.86693 7763 ft 14 kts 339°
2026-04-27 11:58 39.22237 -106.86694 7756 ft 5 kts 51°
2026-04-27 11:58 39.22241 -106.86677 7752 ft 0 kts 71°